www.pogodaiklimat.ru

Погода и климат >> Архив погоды >> Россия >> Ямало-Ненецкий АО >> Толька


АРХИВ ПОГОДЫ в Тольке

Время (UTC), дата Ветер
(напр.,м/с)
 
Видим.   Явления Облачность Т
(С)
Тd
(С)
f
(%)
Тe
(С)
Тes
(С)
Комфортность P
(гПа)
Po
(гПа)
Тmin
(С)
Tmax
(С)
R
(мм)
R24
(мм)
S
(см)
03 17.03 С 1 50 км ясно -17.3 -20.9 73 -20 -18 1018.7 1014.0 -19.6 79
06 17.03 С 1 50 км ясно -9.7 -18.1 50 -12 -7 1020.2 1015.6
09 17.03 З 2 50 км 6/0
[Ci fib]
-6.4 -17.6 41 -10 -8 1001.8 1017.3
12 17.03 СЗ 1 50 км 4/0
[Ci fib]
-7.7 -17.5 45 -10 -9 1023.9 1019.4
15 17.03 З 1 20 км ясно -15.0 -19.9 66 -18 -18 1025.9 1021.2 -5.8
18 17.03 З 1 20 км ясно -18.3 -20.6 82 -21 -21 1026.8 1022.1
21 17.03 штиль 0 20 км ясно -19.9 -21.9 84 -20 -20 1027.5 1022.7
00 18.03 ЮЗ 1 20 км ясно -21.8 -24.1 82 -25 -25 1028.6 1023.8
03 18.03 З 1 50 км 10/0
[Ci sp]
-16.5 -20.6 71 -19 -18 1029.0 1024.3 -22.1 79
06 18.03 ЮЗ 1 50 км 10/0
[Ci sp]
-11.0 -19.1 51 -13 -9 1028.6 1024.0
09 18.03 ЮЗ 2 50 км 10/0
[Ci sp]
-7.6 -18.2 42 -12 -9 1028.6 1024.0
12 18.03 З 1 50 км 10/0
[Ci sp]
-8.7 -17.8 48 -11 -11 1027.8 1023.2
15 18.03 ЮЗ 1 20 км 10/0
[Ci sp]
-10.7 -17.2 59 -13 -13 1027.6 1023.0 -7.3
18 18.03 Ю 1 20 км 10/0
[Ac trans Ci sp]
-15.1 -17.9 79 -18 -18 1026.9 1022.2
21 18.03 Ю 1 20 км 10/0
[Ac trans Ci sp]
-13.9 -17.1 77 -16 -16 1026.1 1021.5
00 19.03 Ю 1 20 км 10/5 600 м
[Sc Ac As]
-13.1 -16.5 76 -15 -15 1026.2 1021.5
03 19.03 ЮЗ 1 50 км 10/0
[Ac As]
-10.2 -14.8 69 -12 -12 1026.4 1021.8 -16.0 79
06 19.03 ЮЗ 1 50 км 4/0
[Ac trans Ci fib]
-5.4 -11.4 63 -7 -3 1026.5 1022.0
09 19.03 ЮЗ 2 50 км 4/0
[Ci fib]
-2.3 -9.9 56 -6 -3 1026.7 1022.2
12 19.03 З 2 50 км 6/0
[Ac trans Ci fib]
-3.8 -10.2 61 -8 -7 1027.3 1022.8
15 19.03 З 1 20 км 9/0
[Ac trans]
-7.2 -10.8 75 -9 -9 1027.6 1023.1 -2.2
18 19.03 ЮЗ 1 20 км ясно -13.4 -14.6 91 -16 -16 1027.7 1023.0
21 19.03 штиль 0 20 км ясно -16.3 -17.9 87 -16 -16 1027.9 1023.2
00 20.03 ЮВ 1 20 км 8/0
[Ac trans]
-19.0 -21.1 83 -22 -22 1027.3 1022.5
03 20.03 Ю 1 20 км 10/0
[Ac trans]
-10.7 -12.5 87 -13 -12 1026.3 1021.7 -19.1 77
06 20.03 Ю 2 50 км 10/4 300 м
[Sc diur, vesp Ac trans]
-3.7 -8.2 71 -8 -6 1024.5 1020.0
09 20.03 Ю 3 50 км 10/0
[Ac trans]
-0.7 -6.8 63 -5 -4 1022.8 1018.4
12 20.03 ЮВ 2 50 км 10/0
[Ac trans]
-0.1 -6.1 64 -3 -3 1020.9 1016.5
15 20.03 Ю 2 20 км 10/0
[Ac As]
+0.1 -5.4 66 -3 -3 1019.0 1014.7 +0.1
18 20.03 Ю 1 20 км 10/0
[Ci sp]
-0.3 -6.2 64 -2 -2 1016.9 1012.6
21 20.03 Ю 3 20 км 10/0
[Ci sp]
-1.1 -7.8 60 -5 -5 1014.6 1010.2
00 21.03 Ю 2 20 км 10/0
[Ci sp]
-2.2 -9.9 56 -6 -6 1012.7 1008.3
03 21.03 ЮЗ 3 50 км 10/0
[Ac trans Ci sp]
-1.7 -10.9 49 -6 -5 1011.6 1007.3 -2.4 77
06 21.03 ЮЗ 3 50 км 9/0
[Ac trans Ci fib]
-0.4 -10.6 46 -4 -2 1011.1 1006.8
09 21.03 ЮЗ 3 50 км в посл. час ливневой снег 10/5 300 м
[Cb cap Ac As]
-0.3 -7.5 58 -4 -4 1010.7 1006.3
12 21.03 ЮЗ 2 2000 м ливневой снег 10/8 300 м
[Cb cap Ac As]
-2.9 -4.1 91 -7 -7 1011.7 1007.3
15 21.03 ЮЗ 2 4000 м слаб. ливневой снег 10/9 300 м
[Cb cap Ac trans]
-3.3 -4.4 92 -8 -8 1011.7 1007.3 -0.2 2
18 21.03 ЮЗ 1 4000 м слаб. ливневой снег 10/10 480 м
[Cb cap]
-3.7 -4.6 93 -6 -6 1010.9 1006.5
21 21.03 ЮЗ 1 2000 м ливневой снег 10/10 400 м
[Cb cap]
-4.1 -4.8 95 -7 -7 1009.9 1005.5
00 22.03 Ю 1 2000 м ливневой снег 10/10 450 м
[Cb cap]
-4.4 -5.0 96 -7 -7 1009.7 1005.2
03 22.03 З 1 10 км слаб. ливневой снег 10/8 450 м
[Cb cap Ac und]
-3.2 -4.6 90 -6 -5 1010.5 1006.1 -4.4 3 78
06 22.03 ЮЗ 2 50 км {ливн. осадки} 8/3 300 м
[Sc Ac trans]
-0.5 -3.7 79 -4 -2 1011.5 1007.2
09 22.03 ЮЗ 2 50 км 10/8 400 м
[Cb cap Ac trans]
+0.3 -2.5 81 -3 -3 1012.6 1008.3
12 22.03 З 2 50 км {ливн. осадки} 10/3 300 м
[Cb cap Ac trans]
+0.8 -2.2 80 -3 -3 1013.4 1009.0
15 22.03 З 2 20 км 8/0
[Ac trans]
-1.2 -3.9 82 -5 -5 1014.6 1010.2 +1.5 0.0
18 22.03 З 2 20 км 8/0
[Ac trans]
-3.3 -5.4 85 -7 -7 1015.8 1011.4
21 22.03 ЮЗ 1 20 км 9/0
[Ac trans]
-5.2 -5.9 95 -8 -8 1016.5 1012.0
00 23.03 штиль 0 4000 м {ливн. осадки} 10/8 300 м
[Cb cap Ac As]
-4.0 -4.6 96 -5 -5 1016.4 1012.0
03 23.03 штиль 0 10 км слаб. ливневой снег 10/8 300 м
[Cb cap Ac As]
-2.0 -3.4 90 -3 -3 1016.8 1012.4 -5.6 0.2 80
06 23.03 ЮЗ 1 10 км слаб. ливневой снег 10/8 450 м
[Cb cap Ac As]
-0.1 -3.0 81 -2 -2 1017.1 1012.7
09 23.03 ЮЗ 2 50 км в посл. час ливневой снег 10/8 500 м
[Cb cap Ac As]
+0.5 -2.9 78 -3 -3 1017.0 1012.6
12 23.03 З 1 50 км в посл. час ливневой снег 9/4 300 м
[Cb cap Ac trans]
-0.8 -4.0 79 -3 -3 1016.7 1012.3
15 23.03 ЮЗ 1 20 км 10/4 300 м
[Cb cap Ac As]
-3.5 -4.4 93 -6 -6 1016.5 1012.1 +1.0 0.2
18 23.03 ЮЗ 1 20 км 10/8 540 м
[Cb cap Ac As]
-3.9 -4.5 96 -6 -6 1016.3 1011.9
21 23.03 ЮЗ 1 20 км ясно -9.4 -10.2 94 -12 -12 1016.0 1011.5

 

Местоположение метеостанции Толька (Ямало-Ненецкий АО, Россия): широта 63.98 долгота 82.08 высота над уровнем моря 35 м.

В архиве по умолчанию представлена погода в Тольке за последнюю неделю. Архивные данные за месяц целиком и за предыдущие месяцы, начиная с января 2011 года, Вы можете получить, выбрав интересующий диапазон дат из раскрывающегося списка и нажав кнопку "Ввод!".


*Определитесь, кто Вы:
робот инопланетянин человек

Внимание! Время в таблицах - всемирное. Для получения местного времени необходимо прибавить поправку, которая равна 5 ч.

Смотрите также архив погоды в соседних городах и на ближайших метеорологических станциях:

Погода в Красноселькупске (Ямало-Ненецкий АО, Россия) (192 км)
Погода в Халясавэе (Ямало-Ненецкий АО, Россия) (197 км)
Погода в Тарко-Сале (Ямало-Ненецкий АО, Россия) (229 км)
Погода в Верещагино (Красноярский край, Россия) (263 км)
Погода в Келлоге (Красноярский край, Россия) (268 км)
Погода в Корликах (Ханты-Мансийский АО, Россия) (273 км)
Погода в Уренгое (Ямало-Ненецкий АО, Россия) (279 км)
Погода в Верхнеимбатске (Красноярский край, Россия) (305 км)
Погода в Радужном (Ханты-Мансийский АО, Россия) (314 км)
Погода в Советской Речке (Красноярский край, Россия) (326 км)

Пояснения к столбцам:

Ветер - указаны скорость ветра в м/с - средняя за 10 мин, порывы в срок и между сроками (в фигурных скобках) и направление, откуда дует ветер: С - северный, СВ - северо-восточный, В - восточный, ЮВ - юго-восточный, Ю - южный, ЮЗ - юго-западный, З - западный, СЗ - северо-западный.
Видимость - горизонтальная дальность видимости в метрах или километрах. При видимости от 1 до 10 км при отсутствии осадков обычно наблюдается дымка, при ухудшении видимости до 1 км и менее - туман. В сухую погоду видимость может ухудшаться дымом, пылью или мглою.
Явления - указаны атмосферные явления, наблюдавшиеся в срок или в последний час перед сроком; фигурными скобками обозначены явления, наблюдавшиеся между сроками (за 1-3 часа до срока); квадратными скобками обозначены град или гололедные отложения с указанием их диаметра в мм.
Облачность - указаны через наклонную черту общая и нижняя облачность в баллах и высота нижней границы облаков в метрах; квадратными скобками обозначены формы облаков: Ci - перистые, Cs - перисто-слоистые, Cc - перисто-кучевые, Ac - высококучевые, As - высокослоистые, Sc - слоисто-кучевые, Ns - слоисто-дождевые, Cu - кучевые, Cb - кучево-дождевые. Подробнее классификацию облаков см. в Атласе облаков (PDF).
T - Температура воздуха - температура, измеренная на высоте 2 м над землей.
Td - Температура точки росы - температура, при понижении до которой содержащийся в воздухе водяной пар достигнет насыщения.
f - Относительная влажность воздуха - влажноcть воздуха, измеренная на высоте 2 м над землей.
Te - Эффективная температура - температура, которую ощущает одетый по сезону человек в тени. Характеристика душности погоды. При расчете учитывается влияние влажности воздуха и скорости ветра на теплоощущения человека.
Tes - Эффективная температура на солнце - температура, которую ощущает человек, с поправкой на солнечный нагрев. Характеристика знойности погоды. Зависит от высоты солнца над горизонтом, облачности и скорости ветра. Ночью, в пасмурную погоду, а также при ветре 12 м/с и более поправка равна нулю.
P - Атмосферное давление - приведенное к уровню моря атмосферное давление.
Po - Атмосферное давление - измеренное на уровне метеостанции атмосферное давление.
Tmin - Минимальная температура - минимум температуры воздуха на высоте 2 м над землей.
Tmax - Максимальная температура - максимум температуры воздуха на высоте 2 м над землей.
R - Количество осадков - Количество выпавших осадков за период времени, мм. При наведении курсора мыши на число - период времени, за который выпало указанное количество осадков.
R24 - Количество осадков - Количество выпавших осадков за 24 часа, мм.
S - Снежный покров - Высота снежного покрова, см. При наведении курсора мыши на число - состояние снежного покрова и степень покрытия местности в баллах.